Starlink 5417

operational
NORAD ID: 54805 Int'l Des: 2022-175 Owner: SPXS Country: US Constellation: starlink
LEOCIRCULAR

关于 Starlink 5417

正在加载描述...

实时位置

正在加载3D地球...

即将过境

高度历史

Altitude vs Time

uPlot chart will show altitude changes over time

两行轨道根数

1 54805U 22175AZ 26062.13204501 -.00002349 00000-0 -12953-3 0 9994
2 54805 53.2180 58.2702 0001277 100.8557 259.2579 15.08840162179146
Epoch: Mar 3, 2026 • Age: 14 hours

当前状态

高度 556.0 km
速度 7.58 km/s
星下点 -45.77°S, 81.97°W
发射日期 Dec 17, 2022
运行时间 3.2 years
类型 internet

技术详情

分类 Payload
质量 305.00 kg
干质量 290.00 kg
总质量 305.00 kg
长度 0.20 m
直径 2.80 m
跨度 9.00 m
形状 Box + pan
制造商 SPXS
平台类型 Starlink
阶段状态 In Orbit
所有者/国家 SPXS/US

大型星座

Loading constellations...